Time,TemperatureF,DewpointF,PressureIn,WindDirection,WindDirectionDegrees,WindSpeedMPH,WindSpeedGustMPH,Humidity,HourlyPrecipIn,Conditions,Clouds,dailyrainin,SoftwareType,DateUTC
2013-03-09 00:01:00,35.0,25.0,30.13,ESE,123,1.0,4.0,66,0.00,,,0.00,,2013-03-09 06:01:00,
2013-03-09 00:11:00,36.0,25.0,30.12,SSE,157,2.0,11.0,64,0.00,,,0.00,,2013-03-09 06:11:00,
2013-03-09 00:22:00,36.0,25.0,30.12,SSE,157,2.0,11.0,64,0.00,,,0.00,,2013-03-09 06:22:00,
2013-03-09 00:31:00,36.0,25.0,30.12,SSE,157,2.0,11.0,64,0.00,,,0.00,,2013-03-09 06:31:00,
2013-03-09 00:42:00,36.0,25.0,30.12,SSE,157,2.0,11.0,64,0.00,,,0.00,,2013-03-09 06:42:00,
2013-03-09 00:52:00,36.0,25.0,30.12,SE,139,1.0,11.0,64,0.00,,,0.00,,2013-03-09 06:52:00,
2013-03-09 01:01:00,36.0,25.0,30.12,SE,139,1.0,11.0,64,0.00,,,0.00,,2013-03-09 07:01:00,
2013-03-09 01:11:00,36.0,25.0,30.12,SE,139,1.0,11.0,64,0.00,,,0.00,,2013-03-09 07:11:00,
2013-03-09 01:21:00,35.0,24.0,30.11,SSE,147,3.0,10.0,65,0.00,,,0.00,,2013-03-09 07:21:00,
2013-03-09 01:31:00,35.0,24.0,30.11,SSE,147,3.0,10.0,65,0.00,,,0.00,,2013-03-09 07:31:00,
2013-03-09 01:42:00,35.0,24.0,30.11,SSE,147,3.0,10.0,65,0.00,,,0.00,,2013-03-09 07:42:00,
2013-03-09 01:52:00,35.0,24.0,30.10,SSE,150,4.0,10.0,65,0.00,,,0.00,,2013-03-09 07:52:00,
2013-03-09 02:01:00,35.0,24.0,30.10,SSE,150,4.0,10.0,65,0.00,,,0.00,,2013-03-09 08:01:00,
2013-03-09 02:11:00,35.0,24.0,30.10,SSE,150,4.0,10.0,65,0.00,,,0.00,,2013-03-09 08:11:00,
2013-03-09 02:22:00,34.0,25.0,30.09,SE,141,0.0,7.0,70,0.00,,,0.00,,2013-03-09 08:22:00,
2013-03-09 02:31:00,34.0,25.0,30.09,SE,141,0.0,7.0,70,0.00,,,0.00,,2013-03-09 08:31:00,
2013-03-09 02:42:00,34.0,25.0,30.09,SE,141,0.0,7.0,70,0.00,,,0.00,,2013-03-09 08:42:00,
2013-03-09 02:52:00,33.0,27.0,30.07,ESE,122,1.0,7.0,77,0.00,,,0.00,,2013-03-09 08:52:00,
2013-03-09 03:01:00,33.0,27.0,30.07,ESE,122,1.0,7.0,77,0.00,,,0.00,,2013-03-09 09:01:00,
2013-03-09 03:12:00,33.0,27.0,30.07,ESE,122,1.0,7.0,77,0.00,,,0.00,,2013-03-09 09:12:00,
2013-03-09 03:21:00,33.0,28.0,30.04,ESE,116,0.0,6.0,80,0.00,,,0.00,,2013-03-09 09:21:00,
2013-03-09 03:31:00,33.0,28.0,30.04,ESE,116,0.0,6.0,80,0.00,,,0.00,,2013-03-09 09:31:00,
2013-03-09 03:42:00,33.0,28.0,30.04,ESE,116,0.0,6.0,80,0.00,,,0.00,,2013-03-09 09:42:00,
2013-03-09 03:52:00,33.0,28.0,30.02,SE,124,2.0,6.0,82,0.00,,,0.00,,2013-03-09 09:52:00,
2013-03-09 04:01:00,33.0,28.0,30.02,SE,124,2.0,6.0,82,0.00,,,0.00,,2013-03-09 10:01:00,
2013-03-09 04:11:00,33.0,28.0,30.02,SE,124,2.0,6.0,82,0.00,,,0.00,,2013-03-09 10:11:00,
2013-03-09 04:21:00,33.0,28.0,30.01,SE,124,0.0,8.0,83,0.00,,,0.00,,2013-03-09 10:21:00,
2013-03-09 04:31:00,33.0,28.0,30.01,SE,124,0.0,8.0,83,0.00,,,0.00,,2013-03-09 10:31:00,
2013-03-09 04:42:00,33.0,28.0,30.01,SE,124,0.0,8.0,83,0.00,,,0.00,,2013-03-09 10:42:00,
2013-03-09 04:52:00,33.0,29.0,29.99,ESE,119,1.0,7.0,84,0.00,,,0.00,,2013-03-09 10:52:00,
2013-03-09 05:01:00,33.0,29.0,29.99,ESE,119,1.0,7.0,84,0.00,,,0.00,,2013-03-09 11:01:00,
2013-03-09 05:11:00,33.0,29.0,29.99,ESE,119,1.0,7.0,84,0.00,,,0.00,,2013-03-09 11:11:00,
2013-03-09 05:21:00,33.0,29.0,29.98,ESE,123,1.0,6.0,85,0.00,,,0.00,,2013-03-09 11:21:00,
2013-03-09 05:32:00,33.0,29.0,29.98,ESE,123,1.0,6.0,85,0.00,,,0.00,,2013-03-09 11:32:00,
2013-03-09 05:42:00,33.0,29.0,29.98,ESE,123,1.0,6.0,85,0.00,,,0.00,,2013-03-09 11:42:00,
2013-03-09 05:52:00,34.0,30.0,29.97,SE,126,1.0,7.0,85,0.00,,,0.00,,2013-03-09 11:52:00,
2013-03-09 06:01:00,34.0,30.0,29.97,SE,126,1.0,7.0,85,0.00,,,0.00,,2013-03-09 12:01:00,
2013-03-09 06:11:00,34.0,30.0,29.97,SE,126,1.0,7.0,85,0.00,,,0.00,,2013-03-09 12:11:00,
2013-03-09 06:21:00,34.0,30.0,29.97,SSE,159,1.0,5.0,86,0.00,,,0.00,,2013-03-09 12:21:00,
2013-03-09 06:32:00,34.0,30.0,29.97,SSE,159,1.0,5.0,86,0.00,,,0.00,,2013-03-09 12:32:00,
2013-03-09 06:42:00,34.0,30.0,29.97,SSE,159,1.0,5.0,86,0.00,,,0.00,,2013-03-09 12:42:00,
2013-03-09 06:52:00,34.0,30.0,29.96,SSE,161,0.0,7.0,86,0.00,,,0.00,,2013-03-09 12:52:00,
2013-03-09 07:02:00,34.0,30.0,29.96,SSE,161,0.0,7.0,86,0.00,,,0.00,,2013-03-09 13:02:00,
2013-03-09 07:11:00,34.0,30.0,29.96,SSE,161,0.0,7.0,86,0.00,,,0.00,,2013-03-09 13:11:00,
2013-03-09 07:21:00,34.0,30.0,29.94,SE,131,1.0,7.0,86,0.00,,,0.00,,2013-03-09 13:21:00,
2013-03-09 07:31:00,34.0,30.0,29.94,SE,131,1.0,7.0,86,0.00,,,0.00,,2013-03-09 13:31:00,
2013-03-09 07:42:00,34.0,30.0,29.94,SE,131,1.0,7.0,86,0.00,,,0.00,,2013-03-09 13:42:00,
2013-03-09 07:52:00,34.0,31.0,29.93,SSE,147,1.0,8.0,87,0.00,,,0.00,,2013-03-09 13:52:00,
2013-03-09 08:01:00,34.0,31.0,29.93,SSE,147,1.0,8.0,87,0.00,,,0.00,,2013-03-09 14:01:00,
2013-03-09 08:11:00,34.0,31.0,29.93,SSE,147,1.0,8.0,87,0.00,,,0.00,,2013-03-09 14:11:00,
2013-03-09 08:21:00,34.0,31.0,29.91,SE,124,4.0,11.0,87,0.00,,,0.00,,2013-03-09 14:21:00,
2013-03-09 08:31:00,34.0,31.0,29.91,SE,124,4.0,11.0,87,0.00,,,0.00,,2013-03-09 14:31:00,
2013-03-09 08:42:00,34.0,31.0,29.91,SE,124,4.0,11.0,87,0.00,,,0.00,,2013-03-09 14:42:00,
2013-03-09 08:52:00,35.0,32.0,29.91,SE,129,2.0,9.0,87,0.00,,,0.00,,2013-03-09 14:52:00,
2013-03-09 09:01:00,35.0,32.0,29.91,SE,129,2.0,9.0,87,0.00,,,0.00,,2013-03-09 15:01:00,
2013-03-09 09:11:00,35.0,32.0,29.91,SE,129,2.0,9.0,87,0.00,,,0.00,,2013-03-09 15:11:00,
2013-03-09 09:22:00,35.0,32.0,29.90,SE,145,1.0,5.0,88,0.00,,,0.00,,2013-03-09 15:22:00,
2013-03-09 09:31:00,35.0,32.0,29.90,SE,145,1.0,5.0,88,0.00,,,0.00,,2013-03-09 15:31:00,
2013-03-09 09:42:00,35.0,32.0,29.90,SE,145,1.0,5.0,88,0.00,,,0.00,,2013-03-09 15:42:00,
2013-03-09 09:52:00,35.0,32.0,29.88,ESE,118,1.0,9.0,88,0.00,,,0.00,,2013-03-09 15:52:00,
2013-03-09 10:01:00,35.0,32.0,29.88,ESE,118,1.0,9.0,88,0.00,,,0.00,,2013-03-09 16:01:00,
2013-03-09 10:11:00,35.0,32.0,29.88,ESE,118,1.0,9.0,88,0.00,,,0.00,,2013-03-09 16:11:00,
2013-03-09 10:21:00,35.0,32.0,29.88,ESE,123,3.0,7.0,88,0.00,,,0.00,,2013-03-09 16:21:00,
2013-03-09 10:32:00,35.0,32.0,29.88,ESE,123,3.0,7.0,88,0.00,,,0.00,,2013-03-09 16:32:00,
2013-03-09 10:42:00,35.0,32.0,29.88,ESE,123,3.0,7.0,88,0.00,,,0.00,,2013-03-09 16:42:00,
2013-03-09 10:52:00,35.0,32.0,29.87,SSE,148,1.0,6.0,88,0.00,,,0.00,,2013-03-09 16:52:00,
2013-03-09 11:01:00,35.0,32.0,29.87,SSE,148,1.0,6.0,88,0.00,,,0.00,,2013-03-09 17:01:00,
2013-03-09 11:11:00,35.0,32.0,29.87,SSE,148,1.0,6.0,88,0.00,,,0.00,,2013-03-09 17:11:00,
2013-03-09 11:22:00,35.0,32.0,29.86,ESE,121,1.0,5.0,89,0.00,,,0.00,,2013-03-09 17:22:00,
2013-03-09 11:32:00,35.0,32.0,29.86,ESE,121,1.0,5.0,89,0.00,,,0.00,,2013-03-09 17:32:00,
2013-03-09 11:42:00,35.0,32.0,29.86,ESE,121,1.0,5.0,89,0.00,,,0.00,,2013-03-09 17:42:00,
2013-03-09 11:52:00,35.0,32.0,29.85,SE,127,1.0,5.0,89,0.00,,,0.00,,2013-03-09 17:52:00,
2013-03-09 12:01:00,35.0,32.0,29.85,SE,127,1.0,5.0,89,0.00,,,0.00,,2013-03-09 18:01:00,
2013-03-09 12:11:00,35.0,32.0,29.85,SE,127,1.0,5.0,89,0.00,,,0.00,,2013-03-09 18:11:00,
2013-03-09 12:21:00,36.0,33.0,29.83,SE,134,0.0,6.0,89,0.00,,,0.00,,2013-03-09 18:21:00,
2013-03-09 12:31:00,36.0,33.0,29.83,SE,134,0.0,6.0,89,0.00,,,0.00,,2013-03-09 18:31:00,
2013-03-09 12:42:00,36.0,33.0,29.83,SE,134,0.0,6.0,89,0.00,,,0.00,,2013-03-09 18:42:00,
2013-03-09 12:52:00,36.0,33.0,29.82,SE,135,0.0,4.0,89,0.00,,,0.00,,2013-03-09 18:52:00,
2013-03-09 13:01:00,36.0,33.0,29.82,SE,135,0.0,4.0,89,0.00,,,0.00,,2013-03-09 19:01:00,
2013-03-09 13:11:00,36.0,33.0,29.82,SE,135,0.0,4.0,89,0.00,,,0.00,,2013-03-09 19:11:00,
2013-03-09 13:22:00,36.0,33.0,29.82,ESE,123,1.0,5.0,90,0.00,,,0.00,,2013-03-09 19:22:00,
2013-03-09 13:32:00,36.0,33.0,29.82,ESE,123,1.0,5.0,90,0.00,,,0.00,,2013-03-09 19:32:00,
2013-03-09 13:42:00,36.0,33.0,29.82,ESE,123,1.0,5.0,90,0.00,,,0.00,,2013-03-09 19:42:00,
2013-03-09 13:52:00,36.0,33.0,29.80,ESE,120,0.0,4.0,90,0.00,,,0.00,,2013-03-09 19:52:00,
2013-03-09 14:01:00,36.0,33.0,29.80,ESE,120,0.0,4.0,90,0.00,,,0.00,,2013-03-09 20:01:00,
2013-03-09 14:11:00,36.0,33.0,29.80,ESE,120,0.0,4.0,90,0.00,,,0.00,,2013-03-09 20:11:00,
2013-03-09 14:21:00,36.0,33.0,29.78,ESE,119,0.0,5.0,90,0.00,,,0.00,,2013-03-09 20:21:00,
2013-03-09 14:32:00,36.0,33.0,29.78,ESE,119,0.0,5.0,90,0.00,,,0.00,,2013-03-09 20:32:00,
2013-03-09 14:42:00,36.0,33.0,29.78,ESE,119,0.0,5.0,90,0.00,,,0.00,,2013-03-09 20:42:00,
2013-03-09 14:52:00,36.0,33.0,29.77,ESE,112,0.0,1.0,90,0.00,,,0.00,,2013-03-09 20:52:00,
2013-03-09 15:02:00,36.0,33.0,29.77,ESE,112,0.0,1.0,90,0.00,,,0.00,,2013-03-09 21:02:00,
2013-03-09 15:12:00,36.0,33.0,29.77,ESE,112,0.0,1.0,90,0.00,,,0.00,,2013-03-09 21:12:00,
2013-03-09 15:21:00,36.0,33.0,29.76,ESE,112,0.0,2.0,90,0.00,,,0.00,,2013-03-09 21:21:00,
2013-03-09 15:32:00,36.0,33.0,29.76,ESE,112,0.0,2.0,90,0.00,,,0.00,,2013-03-09 21:32:00,
2013-03-09 15:42:00,36.0,33.0,29.76,ESE,112,0.0,2.0,90,0.00,,,0.00,,2013-03-09 21:42:00,
2013-03-09 15:52:00,36.0,33.0,29.77,ESE,106,0.0,2.0,90,0.00,,,0.00,,2013-03-09 21:52:00,
2013-03-09 16:01:00,36.0,33.0,29.77,ESE,106,0.0,2.0,90,0.00,,,0.00,,2013-03-09 22:01:00,
2013-03-09 16:11:00,36.0,33.0,29.77,ESE,106,0.0,2.0,90,0.00,,,0.00,,2013-03-09 22:11:00,
2013-03-09 16:21:00,36.0,33.0,29.76,ESE,106,0.0,0.0,90,0.00,,,0.00,,2013-03-09 22:21:00,
2013-03-09 16:32:00,36.0,33.0,29.76,ESE,106,0.0,0.0,90,0.00,,,0.00,,2013-03-09 22:32:00,
2013-03-09 16:42:00,36.0,33.0,29.76,ESE,106,0.0,0.0,90,0.00,,,0.00,,2013-03-09 22:42:00,
2013-03-09 16:52:00,36.0,33.0,29.74,East,86,0.0,3.0,90,0.00,,,0.00,,2013-03-09 22:52:00,
2013-03-09 17:01:00,36.0,33.0,29.74,East,86,0.0,3.0,90,0.00,,,0.00,,2013-03-09 23:01:00,
2013-03-09 17:11:00,36.0,33.0,29.74,East,86,0.0,3.0,90,0.00,,,0.00,,2013-03-09 23:11:00,
2013-03-09 17:21:00,36.0,34.0,29.76,East,86,0.0,0.0,91,0.00,,,0.00,,2013-03-09 23:21:00,
2013-03-09 17:32:00,36.0,34.0,29.76,East,86,0.0,0.0,91,0.00,,,0.00,,2013-03-09 23:32:00,
2013-03-09 17:42:00,36.0,34.0,29.76,East,86,0.0,0.0,91,0.00,,,0.00,,2013-03-09 23:42:00,
2013-03-09 17:52:00,36.0,34.0,29.76,East,86,0.0,0.0,91,0.00,,,0.00,,2013-03-09 23:52:00,
2013-03-09 18:01:00,36.0,34.0,29.76,East,86,0.0,0.0,91,0.00,,,0.00,,2013-03-10 00:01:00,
2013-03-09 18:11:00,36.0,34.0,29.76,East,86,0.0,0.0,91,0.00,,,0.00,,2013-03-10 00:11:00,
2013-03-09 18:22:00,36.0,34.0,29.76,East,86,0.0,0.0,91,0.00,,,0.00,,2013-03-10 00:22:00,
2013-03-09 18:32:00,36.0,34.0,29.76,East,86,0.0,0.0,91,0.00,,,0.00,,2013-03-10 00:32:00,
2013-03-09 18:43:00,36.0,34.0,29.76,East,86,0.0,0.0,91,0.00,,,0.00,,2013-03-10 00:43:00,
2013-03-09 18:52:00,36.0,34.0,29.77,East,86,0.0,0.0,91,0.00,,,0.00,,2013-03-10 00:52:00,
2013-03-09 19:01:00,36.0,34.0,29.77,East,86,0.0,0.0,91,0.00,,,0.00,,2013-03-10 01:01:00,
2013-03-09 19:11:00,36.0,34.0,29.77,East,86,0.0,0.0,91,0.00,,,0.00,,2013-03-10 01:11:00,
2013-03-09 19:21:00,36.0,34.0,29.77,East,86,0.0,0.0,91,0.00,,,0.00,,2013-03-10 01:21:00,
2013-03-09 19:31:00,36.0,34.0,29.77,East,86,0.0,0.0,91,0.00,,,0.00,,2013-03-10 01:31:00,
2013-03-09 19:42:00,36.0,34.0,29.77,East,86,0.0,0.0,91,0.00,,,0.00,,2013-03-10 01:42:00,
2013-03-09 19:52:00,36.0,34.0,29.78,East,86,0.0,0.0,91,0.00,,,0.00,,2013-03-10 01:52:00,
2013-03-09 20:01:00,36.0,34.0,29.78,East,86,0.0,0.0,91,0.00,,,0.00,,2013-03-10 02:01:00,
2013-03-09 20:11:00,36.0,34.0,29.78,East,86,0.0,0.0,91,0.00,,,0.00,,2013-03-10 02:11:00,
2013-03-09 20:22:00,35.0,33.0,29.78,East,86,0.0,0.0,91,0.00,,,0.00,,2013-03-10 02:22:00,
2013-03-09 20:31:00,35.0,33.0,29.78,East,86,0.0,0.0,91,0.00,,,0.00,,2013-03-10 02:31:00,
2013-03-09 20:42:00,35.0,33.0,29.78,East,86,0.0,0.0,91,0.00,,,0.00,,2013-03-10 02:42:00,
2013-03-09 20:52:00,35.0,33.0,29.79,East,86,0.0,0.0,91,0.00,,,0.00,,2013-03-10 02:52:00,
2013-03-09 21:01:00,35.0,33.0,29.79,East,86,0.0,0.0,91,0.00,,,0.00,,2013-03-10 03:01:00,
2013-03-09 21:11:00,35.0,33.0,29.79,East,86,0.0,0.0,91,0.00,,,0.00,,2013-03-10 03:11:00,
2013-03-09 21:22:00,35.0,33.0,29.79,East,86,0.0,0.0,91,0.00,,,0.00,,2013-03-10 03:22:00,
2013-03-09 21:32:00,35.0,33.0,29.79,East,86,0.0,0.0,91,0.00,,,0.00,,2013-03-10 03:32:00,
2013-03-09 21:42:00,35.0,33.0,29.79,East,86,0.0,0.0,91,0.00,,,0.00,,2013-03-10 03:42:00,
2013-03-09 21:52:00,35.0,33.0,29.80,East,86,0.0,0.0,91,0.00,,,0.00,,2013-03-10 03:52:00,
2013-03-09 22:01:00,35.0,33.0,29.80,East,86,0.0,0.0,91,0.00,,,0.00,,2013-03-10 04:01:00,
2013-03-09 22:11:00,35.0,33.0,29.80,East,86,0.0,0.0,91,0.00,,,0.00,,2013-03-10 04:11:00,
2013-03-09 22:21:00,35.0,33.0,29.81,East,86,0.0,0.0,92,0.00,,,0.00,,2013-03-10 04:21:00,
2013-03-09 22:31:00,35.0,33.0,29.81,East,86,0.0,0.0,92,0.00,,,0.00,,2013-03-10 04:31:00,
2013-03-09 22:42:00,35.0,33.0,29.81,East,86,0.0,0.0,92,0.00,,,0.00,,2013-03-10 04:42:00,
2013-03-09 22:52:00,35.0,33.0,29.83,East,86,0.0,0.0,92,0.00,,,0.00,,2013-03-10 04:52:00,
2013-03-09 23:01:00,35.0,33.0,29.83,East,86,0.0,0.0,92,0.00,,,0.00,,2013-03-10 05:01:00,
2013-03-09 23:11:00,35.0,33.0,29.83,East,86,0.0,0.0,92,0.00,,,0.00,,2013-03-10 05:11:00,
2013-03-09 23:22:00,35.0,33.0,29.84,NNW,327,0.0,3.0,92,0.00,,,0.00,,2013-03-10 05:22:00,
2013-03-09 23:31:00,35.0,33.0,29.84,NNW,327,0.0,3.0,92,0.00,,,0.00,,2013-03-10 05:31:00,
2013-03-09 23:42:00,34.0,32.0,29.84,NW,322,0.0,2.0,92,0.00,,,0.00,,2013-03-10 05:42:00,
2013-03-09 23:52:00,34.0,32.0,29.84,NW,322,0.0,2.0,92,0.00,,,0.00,,2013-03-10 05:52:00,